Home   Weather   Martinique   Fort-de-France   Past weeks
Flag for Martinique

Past Weather in Fort-de-France, Martinique — Yesterday and Last 2 Weeks

Currently: 77 °F. Passing clouds. (Weather station: Le Lamentin Airport, Martinique). See more current weather

Past Weather in Fort-de-France — Graph

°F

Fort-de-France Temperature Yesterday

Maximum temperature yesterday: 86 °F (at 12:00 pm)
Minimum temperature yesterday: 75 °F (at 4:00 am)
Average temperature yesterday: 80 °F

High & Low Weather Summary for the Past Weeks

 TemperatureHumidityPressure
High86 °F (Mar 5, 11:30 am)100% (Feb 26, 5:30 am)30.09 "Hg (Feb 26, 5:30 am)
Low70 °F (Feb 26, 3:30 am)51% (Feb 23, 9:30 am)29.86 "Hg (Mar 1, 4:00 am)
Average78 °F72%29.98 "Hg
* Reported Feb 21 2:00 am — Mar 8 2:00 am, Fort-de-France. Weather by CustomWeather, © 2021

Note: Actual official high and low records may vary slightly from our data, if they occured in-between our weather recording intervals... More about our weather records

Fort-de-France Weather History for the Previous 24 Hours

Scroll right to see more
 ConditionsComfort  
Time TempWeatherWind HumidityBarometerVisibility
2:00 am
Mon, Mar 8
77 °FPassing clouds.12 mph79%29.98 "HgN/A
1:30 am77 °FPassing clouds.12 mph79%29.98 "HgN/A
1:00 am77 °FPassing clouds.14 mph74%30.01 "HgN/A
12:30 am79 °FPartly cloudy.14 mph74%30.01 "HgN/A
12:00 am79 °FPartly cloudy.12 mph74%30.01 "HgN/A
11:30 pm
Sun, Mar 7
77 °FClear.13 mph79%30.01 "Hg10 mi
11:00 pm77 °FPassing clouds.13 mph74%30.01 "HgN/A
10:30 pm77 °FPassing clouds.12 mph79%30.01 "HgN/A
10:00 pm79 °FPassing clouds.13 mph70%30.01 "HgN/A
9:30 pm79 °FPassing clouds.13 mph74%30.01 "HgN/A
9:00 pm79 °FPassing clouds.12 mph70%30.01 "HgN/A
8:30 pm79 °FPassing clouds.12 mph70%30.01 "HgN/A
8:00 pm79 °FPassing clouds.14 mph70%30.01 "HgN/A
7:30 pm79 °FPassing clouds.10 mph70%29.98 "HgN/A
7:00 pm79 °FPassing clouds.13 mph74%29.98 "HgN/A
6:30 pm79 °FPassing clouds.12 mph74%29.98 "HgN/A
6:00 pm81 °FPartly sunny.17 mph70%29.98 "HgN/A
5:30 pm81 °FScattered clouds.18 mph66%29.95 "HgN/A
5:00 pm82 °FPartly sunny.18 mph62%29.95 "HgN/A
4:30 pm82 °FPartly sunny.16 mph66%29.95 "HgN/A
4:00 pm82 °FScattered clouds.20 mph62%29.95 "HgN/A
3:30 pm82 °FPartly sunny.20 mph66%29.95 "HgN/A
3:00 pm84 °FPartly sunny.20 mph66%29.98 "HgN/A
2:30 pm84 °FPartly sunny.20 mph66%29.98 "HgN/A
2:00 pm84 °FPartly sunny.21 mph70%29.98 "HgN/A
1:30 pm84 °FBroken clouds.21 mph62%30.01 "HgN/A
1:00 pm84 °FPartly sunny.20 mph66%30.01 "HgN/A
12:30 pm84 °FPartly sunny.21 mph62%30.01 "HgN/A
12:00 pm86 °FPartly sunny.22 mph59%30.04 "HgN/A
11:30 am84 °FPartly sunny.18 mph66%30.04 "HgN/A
11:00 am84 °FPartly sunny.22 mph66%30.04 "HgN/A
10:30 am84 °FScattered clouds.23 mph62%30.07 "HgN/A
10:00 am84 °FBroken clouds.22 mph62%30.07 "HgN/A
9:30 am82 °FPartly sunny.22 mph66%30.07 "HgN/A
9:00 am82 °FScattered clouds.21 mph66%30.07 "HgN/A
8:30 am81 °FPassing clouds.21 mph70%30.04 "HgN/A
8:00 am81 °FPassing clouds.20 mph70%30.04 "HgN/A
7:30 am79 °FPassing clouds.15 mph79%30.04 "HgN/A
7:00 am79 °FPassing clouds.13 mph74%30.01 "HgN/A
6:30 am77 °FPassing clouds.13 mph79%30.01 "HgN/A
6:00 am77 °FPassing clouds.13 mph79%29.98 "HgN/A
5:30 am77 °FPassing clouds.14 mph79%29.98 "HgN/A
5:00 am75 °FPassing clouds.10 mph89%29.98 "HgN/A
4:30 am75 °FPartly cloudy.6 mph83%29.98 "HgN/A
4:00 am75 °FRain. Partly cloudy.14 mph83%29.98 "HgN/A
3:30 am77 °FPassing clouds.10 mph79%29.98 "HgN/A
3:00 am77 °FClear.14 mph79%29.98 "Hg10 mi
Weather by CustomWeather, © 2021

See weather overview